QB50P1

Last updated on Mon Nov 03 2025 00:03:21 GMT+0000 (Coordinated Universal Time)

1 40025U 14033R 25306.49981083 .00009568 00000+0 54017-3 0 9997 2 40025 98.0955 297.5795 0007444 285.7312 74.3096 15.13349584618681
UTC large
Height (km)
Speed (km/s)
/
Latitude / Longitude
Inclination (degrees)
Orbital Period (minutes)
Azimuth
Elevation
Range (km)
Doppler Factor

Next 0 passes for location: London (51.5072 / 0.1276)

Sorry there are no passes over London.